Vorticity
8 8 9 6 4 6 5 3 4 3 4 6 7 5 9 11 5 4 3 4 2 6
7 6 3 9 13 11 6 8 7 5 3 4 4 7 4 9 10 5 3 2 3 7
10 7 7 7 8 14 11 9 8 9 8 6 4 4 6 4 10 8 5 3 4 4
5 10 10 6 7 8 7 6 9 12 9 7 8 5 5 9 6 8 7 5 3 2
8 6 7 7 7 7 7 9 10 10 12 14 15 12 8 7 5 8 9 7 3 3
8 12 9 7 7 6 5 6 6 6 7 9 12 12 18 4 16 11 4 7 9 5
11 5 13 6 4 8 7 6 7 8 15 9 5 9 11 14 11 13 14 5 5 8
11 3 12 11 12 12 12 8 -19 19 5 49 46 -0 3 8 9 10 8 10 10 7
9 7 8 5 8 8 5 7 7 8 8 4 8 55 -14 -9 41 6 8 9 7 9
17 15 6 3 6 4 6 7 6 8 11 14 12 10 11 18 18 40 -3 5 10 -1
15 9 9 14 3 5 6 6 6 11 11 10 10 11 10 12 17 13 20 28 16 15
12 5 6 2 5 5 4 8 15 9 7 11 11 10 9 8 8 13 19 12 9 2
3 6 5 5 3 5 9 10 14 5 8 16 22 17 13 11 10 12 10 13 15 12
2 2 2 5 5 6 8 9 19 5 7 12 9 9 10 12 14 17 19 15 9 13
Height
5888 5890 5893 5895 5896 5898 5900 5902 5904 5906 5908 5909 5911 5912 5916 5917 5919 5921 5922 5923 5925 5925
5886 5887 5889 5891 5893 5894 5896 5898 5900 5902 5904 5905 5906 5907 5909 5912 5914 5917 5917 5919 5921 5922
5882 5884 5885 5887 5889 5890 5892 5894 5896 5898 5900 5901 5902 5902 5904 5907 5908 5910 5912 5913 5916 5917
5879 5881 5882 5883 5884 5886 5888 5891 5893 5894 5897 5899 5900 5900 5901 5902 5903 5905 5907 5908 5910 5912
5877 5879 5880 5881 5882 5883 5885 5887 5890 5892 5894 5895 5896 5897 5898 5899 5899 5901 5901 5901 5904 5905
5874 5877 5878 5878 5880 5881 5883 5885 5887 5888 5888 5889 5890 5890 5892 5893 5893 5895 5897 5898 5899 5899
5870 5873 5873 5874 5876 5877 5879 5880 5881 5883 5883 5881 5881 5883 5883 5885 5885 5885 5886 5888 5890 5892
5866 5872 5870 5871 5872 5875 5876 5875 5876 5876 5876 5871 5874 5875 5875 5875 5875 5875 5876 5878 5879 5881
5860 5862 5866 5866 5868 5870 5870 5870 5869 5868 5867 5867 5865 5863 5867 5863 5863 5863 5866 5869 5870 5872
5857 5860 5861 5859 5862 5865 5864 5865 5862 5861 5861 5860 5858 5857 5856 5854 5853 5855 5855 5857 5859 5861
5850 5854 5856 5851 5856 5859 5858 5857 5855 5854 5854 5852 5849 5847 5846 5845 5846 5847 5847 5848 5850 5850
5845 5846 5848 5849 5851 5851 5850 5848 5847 5847 5845 5844 5841 5838 5837 5836 5836 5837 5839 5839 5839 5839
5842 5841 5843 5844 5843 5841 5840 5840 5840 5839 5836 5833 5831 5829 5827 5825 5826 5828 5828 5828 5828 5829
5834 5834 5834 5834 5834 5833 5833 5832 5831 5830 5826 5824 5822 5819 5818 5816 5816 5816 5816 5818 5818 5818